Regional Weather Roundup
Issued by NWS Albany, NY

Home | Current Version | Previous Version | Text Only | Print | Product List | Glossary On
Versions: 1 2 3 4 5 6 7 8 9 10 11 12 13 14 15 16 17 18 19 20 21 22 23 24 25 26 27 28 29 30 31 32 33 34 35 36 37 38 39 40 41 42 43 44 45 46 47 48 49 50
000
ASUS41 KALY 201110
RWRALY

NEW YORK STATE HOURLY WEATHER ROUNDUP
NATIONAL WEATHER SERVICE ALBANY NY
700 AM EDT WED SEP 20 2017

NOTE: "FAIR" INDICATES FEW OR NO CLOUDS BELOW 12,000 FEET WITH NO
SIGNIFICANT WEATHER AND/OR NO OBSTRUCTIONS TO VISIBILITY.

NYZ032-033-038>043-046>054-057>066-NYZ062>081-082-084-201200-
EAST


CITY           SKY/WX    TMP DP  RH WIND       PRES   REMARKS
ALBANY         MOCLDY    63  60  90 N7        29.97S
GLENS FALLS    PTCLDY    62  59  90 N9        29.99R
POUGHKEEPSIE   CLOUDY    68  61  78 N9        29.90R
NEWBURGH       MOCLDY    68  64  88 NE12      29.92S
MONTGOMERY     CLOUDY    70  62  76 NE13      29.91R
WHITE PLAINS   MOCLDY    70  63  78 N12       29.85R
ISLIP          CLOUDY    71  67  87 N22G29    29.78R
NEW YORK CITY  CLOUDY    71  65  81 N15G23    29.83R
CENTRAL PARK   CLOUDY    71  63  75 N10       29.87R
$$

NYZ005>009-017-018-044>046-055-056-201200-
CENTRAL


CITY           SKY/WX    TMP DP  RH WIND       PRES   REMARKS
FULTON         FOG       58  56  93 CALM      30.02R VSB 1/2
SYRACUSE       PTCLDY    57  57 100 CALM      30.00R
ROME           CLEAR     56  54  93 CALM      30.03R
ELMIRA         FOG       58  58 100 W3        30.03R VSB 1/2
BINGHAMTON     CLEAR     58  56  93 N3        30.03R
MONTICELLO     PTCLDY    62  59  90 W5        29.98R
$$

NYZ026>034-041>043-087-201200-
NORTH


CITY           SKY/WX    TMP DP  RH WIND       PRES   REMARKS
WATERTOWN      FOG       57  57 100 CALM      30.02R VSB 1/2
FORT DRUM      NOT AVBL
OGDENSBURG     FOG       58  58  98 CALM      30.02S VSB 1/4
MASSENA        FOG       58  58 100 NE5       30.04R VSB 1/4
SARANAC LAKE   FOG       48  48 100 CALM      30.05S VSB 1/4
PLATTSBURGH    PTCLDY    56  54  93 CALM      30.02R
$$

NYZ001>004-010>016-019>021-085-201200-
WEST


CITY           SKY/WX    TMP DP  RH WIND       PRES   REMARKS
NIAGARA FALLS  CLEAR     61  57  87 NE3       30.01R
BUFFALO        PTCLDY    60  58  92 N3        30.02R
DUNKIRK        CLEAR     56  56 100 CALM      30.01R
JAMESTOWN      CLEAR     57  57 100 CALM      30.05S
WELLSVILLE     FOG       54  53  97 CALM      30.08R VSB 1/4
ROCHESTER      PTCLDY    58  58 100 SW3       30.02R FOG
PENN YAN       FOG       61  59  93 SW5       30.03R VSB 1/4
$$

             KEY
       WCI = WIND CHILL INDEX
       VSB = VISIBILITY
       HX  = HEAT INDEX
$$



USA.gov is the U.S. government's official web portal to all federal, state and local government web resources and services.